Regional Weather Roundup
Issued by NWS

Home | Current Version | Previous Version | Text Only | Print | Product List | Glossary Off
Versions: 1 2 3 4 5 6 7 8 9 10 11 12 13 14 15 16 17 18 19 20 21 22 23 24 25 26 27 28 29 30 31 32 33 34 35 36 37 38 39 40 41 42 43 44 45 46 47 48 49 50

000
ASUS43 KOAX 251710
RWRNE

WEATHER ROUNDUP FOR NEBRASKA
NATIONAL WEATHER SERVICE OMAHA NE
1100 AM CST SUN JAN 25 2015

NOTES: SATELLITE DATA IS BEING USED TO AUGMENT CLOUD COVER ABOVE
       12000 FEET.
       "FAIR" INDICATES FEW OR NO CLOUDS BELOW 12,000 FEET WITH NO
       SIGNIFICANT WEATHER AND/OR OBSTRUCTIONS TO VISIBILITY.

  * THESE STATIONS DO NOT REPORT WEATHER SUCH AS RAIN...SNOW OR FOG.

NEZ001>004-019>022-054>056-251800-
NEBRASKA PANHANDLE

CITY           SKY/WX    TMP DP  RH WIND       PRES   REMARKS
SCOTTSBLUFF    CLOUDY    40  32  73 NW8       30.14S WCI  34
ALLIANCE       PTSUNNY   40  30  67 W15       30.09S WCI  32
CHADRON        CLOUDY    42  28  57 W14       30.09S
KIMBALL        CLOUDY    44  31  61 NW22G30   30.12R
SIDNEY         CLOUDY    45  29  53 NW15      30.14R
$$

NEZ057>060-069>072-079>082-251800-
SOUTHWEST NEBRASKA

CITY           SKY/WX    TMP DP  RH WIND       PRES   REMARKS
NORTH PLATTE   SUNNY     43  26  51 NW21G30   30.09R
IMPERIAL       SUNNY     44  28  53 NW21      30.11R
LEXINGTON      PTSUNNY   42  30  62 N16       30.07R
MCCOOK         SUNNY     47  24  40 NW25G38   30.09R
OGALLALA       SUNNY     43  29  59 NW12      30.11R
$$

NEZ005>010-023>029-035>040-094-251800-
NORTH CENTRAL NEBRASKA

CITY           SKY/WX    TMP DP  RH WIND       PRES   REMARKS
VALENTINE      CLOUDY    37  29  72 NW14      30.07R WCI  28
AINSWORTH      CLOUDY    37  30  78 NW17G23   30.05R WCI  27
BROKEN BOW     CLOUDY    40  30  67 N21G30    30.04R WCI  30
O`NEILL        CLOUDY    37  36  94 N8        30.03R WCI  31
ORD            CLOUDY    40  31  70 N18       30.02R WCI  31
THEDFORD       SUNNY     41  29  63 NW20      30.08R
$$

NEZ041-046>049-061>064-073>077-083>087-251800-
SOUTH CENTRAL NEBRASKA

CITY           SKY/WX    TMP DP  RH WIND       PRES   REMARKS
GRAND ISLAND   CLOUDY    40  31  70 N26G32    30.02R WCI  29
AURORA         CLOUDY    39  33  78 N24G31    30.01R WCI  28
HASTINGS       CLOUDY    41  29  62 N29G40    30.02R
HEBRON         CLOUDY    40  31  68 N18G30    30.00R WCI  31
HOLDREGE       MOSUNNY   43  28  56 N24G33    30.05R
KEARNEY *      CLOUDY    43  28  56 N24G30    30.04R
YORK           CLOUDY    37  32  81 N20G30    30.01R WCI  27
$$

NEZ011>018-030>034-042>045-251800-
NORTHEAST NEBRASKA

CITY           SKY/WX    TMP DP  RH WIND       PRES   REMARKS
NORFOLK        CLOUDY    35  32  88 N13G23    30.00R WCI  26
ALBION         CLOUDY    37  31  79 N14G22    30.02R WCI  28
BLAIR          CLOUDY    37  33  84 N21       29.94R WCI  26
COLUMBUS *     CLOUDY    36  27  69 N16       30.02R WCI  26
FREMONT        CLOUDY    38  33  81 N14G22    29.98R WCI  30
TEKAMAH        CLOUDY    38  34  85 N24       29.98R WCI  27
WAYNE          CLOUDY    34  33  96 N14       30.01R FOG     WCI  24
$$

NEZ050>053-065>068-078-088>093-251800-
SOUTHEAST NEBRASKA

CITY           SKY/WX    TMP DP  RH WIND       PRES   REMARKS
LINCOLN        CLOUDY    39  32  76 N28G35    29.97R WCI  28
OMAHA EPPLEY   CLOUDY    37  34  89 N18G24    29.95R WCI  27
BEATRICE       PTSUNNY   39  32  76 N22G32    29.96R WCI  28
FALLS CITY     CLOUDY    37  33  85 N20G35    29.88R WCI  27
NEBRASKA CITY  CLOUDY    36  32  85 N21G28    29.91R WCI  25
PLATTSMOUTH    CLOUDY    36  32  86 N15G28    29.93R WCI  26
$$

NEZ044-045-051>053-067-251800-
OMAHA AREA

CITY           SKY/WX    TMP DP  RH WIND       PRES   REMARKS
OMAHA EPPLEY   CLOUDY    37  34  89 N18G24    29.95R WCI  27
BLAIR          CLOUDY    37  33  84 N21       29.94R WCI  26
FREMONT        CLOUDY    38  33  81 N14G22    29.98R WCI  30
MILLARD        CLOUDY    38  33  80 N7G20     29.96R WCI  33
OFFUTT AFB     CLOUDY    37  33  84 N17       29.94R WCI  28
PLATTSMOUTH    CLOUDY    36  32  86 N15G28    29.93R WCI  26
WAHOO          CLOUDY    38  32  77 N17G24    29.98R WCI  29
$$


USA.gov is the U.S. government's official web portal to all federal, state and local government web resources and services.